Starlink 4732

operational
NORAD ID: 53870 Int'l Des: 2022-114 Owner: SPXS Country: US Constellation: starlink
LEOCIRCULAR

About Starlink 4732

Description loading...

Live Position

Loading 3D Globe...

Upcoming Passes

Altitude History

Altitude vs Time

uPlot chart will show altitude changes over time

Two-Line Element Set

1 53870U 22114BE 25312.80400450 .00001103 00000-0 87372-4 0 9993
2 53870 53.2170 86.7281 0001422 90.1878 269.9277 15.08838011175142
Epoch: Nov 8, 2025 • Age: 58 hours

Current Status

Altitude 548.4 km
Velocity 7.59 km/s
Sub-Earth Point -27.61°S, 145.96°E
Launch Date Sep 19, 2022
Age 3.1 years
Type internet

Technical Details

Classification Payload
Mass 305.00 kg
Dry Mass 290.00 kg
Total Mass 305.00 kg
Length 0.20 m
Diameter 2.80 m
Span 9.00 m
Shape Box + pan
Manufacturer SPXS
Bus Type Starlink
Phase Status In Orbit
Owner/State SPXS/US

Large Constellations

Loading constellations...